When you browse on this site, cookies collect data to enhance your experience and personalize the content and advertising you see.
Visit our Privacy Policy to learn more. By continuing to use the site, you agree to this use of cookies and data.
  • Em Portugal
  • Lista de países
  • Para 7 dias
  • Temperatura da água
  • Mapas de satélite
  • Mapa do tempo
  • Widgets de tempo
  • user-avatar
    Iniciar Sessão

    Previsão horária em Hirocastra

    Hoje, 23 Maio, Quinta-feira

    Tempo Temperatura Precipitação Vento Pressão Humidade
    00:00 +7°C° 0 mm 1 m/s 650 mmHg 86%
    01:00 +7°C° 0 mm 1 m/s 650 mmHg 87%
    02:00 +7°C° 0 mm 1 m/s 650 mmHg 86%
    03:00 +7°C° 0 mm 1 m/s 650 mmHg 86%
    04:00 +6°C° 0 mm 1 m/s 649 mmHg 86%
    05:00 +8°C° 0 mm 1 m/s 650 mmHg 79%
    06:00 +10°C° 0 mm 1 m/s 650 mmHg 72%
    07:00 +11°C° 0 mm 1 m/s 651 mmHg 65%
    08:00 +12°C° 0 mm 2 m/s 651 mmHg 61%
    09:00 +14°C° 0 mm 2 m/s 652 mmHg 57%
    10:00 +15°C° 0 mm 2 m/s 652 mmHg 53%
    11:00 +14°C° 0 mm 3 m/s 652 mmHg 54%
    12:00 +14°C° 0 mm 3 m/s 652 mmHg 54%
    13:00 +16°C° 0 mm 3 m/s 652 mmHg 55%
    14:00 +14°C° 0.1 mm 3 m/s 651 mmHg 59%
    15:00 +14°C° 0.1 mm 3 m/s 651 mmHg 62%
    16:00 +13°C° 0.1 mm 3 m/s 650 mmHg 65%
    17:00 +12°C° 0.1 mm 3 m/s 650 mmHg 71%
    18:00 +10°C° 0.1 mm 2 m/s 650 mmHg 77%
    19:00 +9°C° 0.1 mm 2 m/s 649 mmHg 83%
    20:00 +8°C° 0 mm 2 m/s 649 mmHg 85%
    21:00 +8°C° 0 mm 2 m/s 649 mmHg 87%
    22:00 +9°C° 0 mm 1 m/s 650 mmHg 88%
    23:00 +8°C° 0 mm 1 m/s 649 mmHg 88%

    Amanhã, 24 Maio, Sexta-feira

    Tempo Temperatura Precipitação Vento Pressão Humidade
    00:00 +8°C° 0 mm 1 m/s 649 mmHg 88%
    01:00 +8°C° 0 mm 1 m/s 649 mmHg 87%
    02:00 +7°C° 0 mm 1 m/s 649 mmHg 86%
    03:00 +7°C° 0 mm 1 m/s 648 mmHg 86%
    04:00 +6°C° 0 mm 1 m/s 648 mmHg 85%
    05:00 +7°C° 0 mm 2 m/s 649 mmHg 80%
    06:00 +8°C° 0 mm 2 m/s 649 mmHg 74%
    07:00 +9°C° 0 mm 2 m/s 650 mmHg 69%
    08:00 +12°C° 0 mm 2 m/s 650 mmHg 65%
    09:00 +13°C° 0 mm 2 m/s 650 mmHg 61%
    10:00 +15°C° 0 mm 2 m/s 651 mmHg 57%
    11:00 +14°C° 0 mm 3 m/s 651 mmHg 58%
    12:00 +16°C° 0 mm 3 m/s 651 mmHg 58%
    13:00 +15°C° 0 mm 4 m/s 651 mmHg 58%
    14:00 +15°C° 0.1 mm 4 m/s 651 mmHg 62%
    15:00 +14°C° 0.1 mm 4 m/s 650 mmHg 66%
    16:00 +14°C° 0.1 mm 4 m/s 650 mmHg 69%
    17:00 +12°C° 0.1 mm 3 m/s 650 mmHg 76%
    18:00 +12°C° 0.1 mm 2 m/s 650 mmHg 83%
    19:00 +9°C° 0.1 mm 2 m/s 649 mmHg 89%
    20:00 +10°C° 0 mm 1 m/s 649 mmHg 90%
    21:00 +9°C° 0 mm 1 m/s 649 mmHg 91%
    22:00 +8°C° 0 mm 1 m/s 650 mmHg 92%
    23:00 +7°C° 0 mm 0 m/s 649 mmHg 92%

    Depois de amanhã, 25 Maio, Sábado

    Tempo Temperatura Precipitação Vento Pressão Humidade
    00:00 +7°C° 0 mm 0 m/s 649 mmHg 92%
    01:00 +6°C° 0 mm 0 m/s 649 mmHg 92%
    02:00 +6°C° 0 mm 0 m/s 649 mmHg 91%
    03:00 +7°C° 0 mm 1 m/s 649 mmHg 91%
    04:00 +7°C° 0 mm 1 m/s 649 mmHg 91%
    05:00 +8°C° 0 mm 1 m/s 650 mmHg 85%
    06:00 +9°C° 0 mm 0 m/s 650 mmHg 79%
    07:00 +10°C° 0 mm 0 m/s 651 mmHg 73%
    08:00 +13°C° 0 mm 1 m/s 651 mmHg 68%
    09:00 +14°C° 0 mm 1 m/s 652 mmHg 62%
    10:00 +15°C° 0 mm 2 m/s 652 mmHg 57%
    11:00 +16°C° 0 mm 2 m/s 652 mmHg 58%
    12:00 +16°C° 0 mm 2 m/s 652 mmHg 58%
    13:00 +17°C° 0 mm 3 m/s 653 mmHg 58%
    14:00 +16°C° 0 mm 2 m/s 652 mmHg 62%
    15:00 +16°C° 0 mm 2 m/s 652 mmHg 65%
    16:00 +15°C° 0 mm 2 m/s 652 mmHg 68%
    17:00 +14°C° 0 mm 2 m/s 651 mmHg 75%
    18:00 +12°C° 0 mm 1 m/s 651 mmHg 81%
    19:00 +11°C° 0 mm 1 m/s 651 mmHg 87%
    20:00 +10°C° 0 mm 0 m/s 651 mmHg 88%
    21:00 +9°C° 0 mm 0 m/s 651 mmHg 88%
    22:00 +9°C° 0 mm 0 m/s 651 mmHg 89%
    23:00 +10°C° 0 mm 1 m/s 651 mmHg 89%

    26 Maio, Domingo

    Tempo Temperatura Precipitação Vento Pressão Humidade
    00:00 +9°C° 0 mm 1 m/s 651 mmHg 89%
    01:00 +9°C° 0 mm 1 m/s 650 mmHg 90%
    02:00 +9°C° 0 mm 1 m/s 650 mmHg 88%
    03:00 +10°C° 0 mm 1 m/s 650 mmHg 86%
    04:00 +10°C° 0 mm 1 m/s 650 mmHg 85%
    05:00 +11°C° 0 mm 1 m/s 650 mmHg 81%
    06:00 +12°C° 0 mm 1 m/s 651 mmHg 78%
    07:00 +13°C° 0 mm 1 m/s 651 mmHg 75%
    08:00 +14°C° 0.1 mm 1 m/s 652 mmHg 68%
    09:00 +15°C° 0.1 mm 1 m/s 652 mmHg 62%
    10:00 +18°C° 0.1 mm 1 m/s 652 mmHg 55%
    11:00 +16°C° 0.3 mm 1 m/s 652 mmHg 60%
    12:00 +16°C° 0.3 mm 1 m/s 652 mmHg 65%
    13:00 +15°C° 0.3 mm 1 m/s 652 mmHg 70%
    14:00 +15°C° 0.3 mm 2 m/s 652 mmHg 72%
    15:00 +15°C° 0.3 mm 2 m/s 651 mmHg 73%
    16:00 +15°C° 0.3 mm 2 m/s 651 mmHg 74%
    17:00 +14°C° 0 mm 2 m/s 651 mmHg 75%
    18:00 +14°C° 0 mm 2 m/s 651 mmHg 75%
    19:00 +13°C° 0 mm 2 m/s 650 mmHg 76%
    20:00 +13°C° 0 mm 1 m/s 650 mmHg 77%
    21:00 +12°C° 0 mm 1 m/s 650 mmHg 78%
    22:00 +11°C° 0 mm 1 m/s 650 mmHg 78%
    23:00 +11°C° 0 mm 1 m/s 650 mmHg 78%

    27 Maio, Segunda-feira

    Tempo Temperatura Precipitação Vento Pressão Humidade
    00:00 +10°C° 0 mm 2 m/s 649 mmHg 77%
    01:00 +12°C° 0 mm 2 m/s 649 mmHg 77%
    02:00 +10°C° 0 mm 2 m/s 649 mmHg 77%
    03:00 +10°C° 0 mm 2 m/s 649 mmHg 78%
    04:00 +10°C° 0 mm 2 m/s 648 mmHg 78%
    05:00 +12°C° 0 mm 2 m/s 649 mmHg 76%
    06:00 +14°C° 0 mm 2 m/s 649 mmHg 75%
    07:00 +15°C° 0 mm 2 m/s 649 mmHg 73%
    08:00 +16°C° 0 mm 2 m/s 650 mmHg 69%
    09:00 +17°C° 0 mm 2 m/s 650 mmHg 66%
    10:00 +18°C° 0 mm 2 m/s 650 mmHg 62%
    11:00 +19°C° 0.2 mm 3 m/s 650 mmHg 58%
    12:00 +20°C° 0.2 mm 4 m/s 650 mmHg 54%
    13:00 +20°C° 0.2 mm 4 m/s 650 mmHg 50%
    14:00 +19°C° 0.3 mm 3 m/s 649 mmHg 58%
    15:00 +17°C° 0.3 mm 3 m/s 649 mmHg 66%
    16:00 +16°C° 0.3 mm 2 m/s 648 mmHg 74%
    17:00 +15°C° 0 mm 2 m/s 648 mmHg 78%
    18:00 +14°C° 0 mm 2 m/s 647 mmHg 81%
    19:00 +11°C° 0 mm 3 m/s 647 mmHg 85%
    20:00 +11°C° 0 mm 3 m/s 647 mmHg 86%
    21:00 +10°C° 0 mm 3 m/s 647 mmHg 87%
    22:00 +9°C° 0 mm 3 m/s 647 mmHg 88%
    23:00 +9°C° 0 mm 3 m/s 647 mmHg 89%

    28 Maio, Terça-feira

    Tempo Temperatura Precipitação Vento Pressão Humidade
    00:00 +9°C° 0 mm 3 m/s 647 mmHg 90%
    01:00 +8°C° 0 mm 3 m/s 647 mmHg 91%
    02:00 +9°C° 0.1 mm 3 m/s 647 mmHg 90%
    03:00 +9°C° 0.1 mm 3 m/s 647 mmHg 89%
    04:00 +9°C° 0.1 mm 3 m/s 647 mmHg 88%
    05:00 +9°C° 0.1 mm 3 m/s 647 mmHg 87%
    06:00 +10°C° 0.1 mm 3 m/s 647 mmHg 85%
    07:00 +10°C° 0.1 mm 3 m/s 648 mmHg 83%
    08:00 +11°C° 0.1 mm 3 m/s 648 mmHg 81%
    09:00 +12°C° 0.1 mm 3 m/s 648 mmHg 78%
    10:00 +13°C° 0.1 mm 4 m/s 649 mmHg 76%
    11:00 +14°C° 0.1 mm 4 m/s 649 mmHg 74%
    12:00 +14°C° 0.1 mm 3 m/s 649 mmHg 71%
    13:00 +14°C° 0.1 mm 3 m/s 649 mmHg 69%
    14:00 +14°C° 0 mm 3 m/s 649 mmHg 70%
    15:00 +14°C° 0 mm 3 m/s 649 mmHg 71%
    16:00 +14°C° 0 mm 3 m/s 649 mmHg 72%
    17:00 +13°C° 0 mm 3 m/s 649 mmHg 79%
    18:00 +12°C° 0 mm 2 m/s 649 mmHg 86%
    19:00 +10°C° 0 mm 2 m/s 649 mmHg 94%
    20:00 +10°C° 0 mm 2 m/s 649 mmHg 95%
    21:00 +10°C° 0 mm 1 m/s 649 mmHg 96%
    22:00 +9°C° 0 mm 1 m/s 649 mmHg 97%
    23:00 +9°C° 0 mm 1 m/s 649 mmHg 97%
    Mostrar mais